Location: Asheville, NC
(35.6000°N, 82.5500°W)
Time: 03:58:15
(UTC-04:00)

Hubble Space Telescope - Pass Details

Date: 09 October 2017
Orbit: 537 x 541 km, 28.5° (Epoch: 16 October)

Event Time Altitude Azimuth Distance (km) Brightness Sun altitude
Exits shadow 05:17:43 18° 140° (SE) 1,348 3.0 -27.9°
Drops below altitude 10° 05:19:08 10° 126° (SE) 1,784 3.9 -27.6°
Sets 05:21:36 0° 115° (ESE) 2,675 5.1 -27.1°
